Home   Weather   Thompson   Past weeks
Flag for Canada

Past Weather in Thompson, Manitoba, Canada — Yesterday and Last 2 Weeks

Now
30 °F

Passing clouds.


Feels Like: 30 °F
Forecast: 64 / 34 °F
Wind: 2 mph from East

Location: Thompson

Current Time: May 20, 2019 at 6:02:19 am

Latest Report: May 20, 2019 at 5:00 am


Visibility: 15 mi

Pressure: 30.29 "Hg

Humidity: 86%

Dew Point: 27 °F

Location of ThompsonLocation

Past Weather in Thompson — Graph

°F

Thompson Temperature Yesterday

Maximum temperature yesterday: 59 °F (at 6:00 pm)
Minimum temperature yesterday: 28 °F (at 5:00 am)
Average temperature yesterday: 45 °F

High & Low Weather Summary for the Past Weeks

 TemperatureHumidityPressure
High61 °F (May 10, 5:00 pm)100% (May 7, 10:03 pm)30.42 "Hg (May 7, 10:03 pm)
Low16 °F (May 6, 5:00 am)26% (May 9, 4:00 pm)29.45 "Hg (May 13, 9:36 am)
Average39 °F62%30.05 "Hg
* Reported May 5 4:00 am — May 20 4:00 am, Thompson. Weather by CustomWeather, © 2019

Note: Actual official high and low records may vary slightly from our data, if they occured in-between our weather recording intervals... More about our weather records

Advertising

Thompson Weather History for the Previous 24 Hours

Scroll right to see more
 ConditionsComfort  
Time TempWeatherWind HumidityBarometerVisibility
4:00 am
Mon, May 20
28 °FPassing clouds.2 mph93%30.29 "Hg15 mi
3:00 am34 °FPassing clouds.3 mph87%30.28 "Hg15 mi
2:00 am39 °FPassing clouds.2 mph75%30.28 "Hg15 mi
1:00 am43 °FPassing clouds.3 mph66%30.27 "Hg15 mi
12:00 am45 °FPassing clouds.6 mph61%30.27 "Hg15 mi
11:00 pm
Sun, May 19
45 °FPassing clouds.9 mph61%30.27 "Hg15 mi
10:00 pm48 °FPassing clouds.6 mph54%30.26 "Hg15 mi
9:00 pm54 °FPassing clouds.6 mph44%30.25 "Hg15 mi
8:00 pm57 °FSunny.7 mph36%30.25 "Hg15 mi
7:00 pm59 °FPassing clouds.12 mph31%30.25 "Hg15 mi
6:00 pm59 °FPassing clouds.9 mph31%30.27 "Hg15 mi
5:00 pm57 °FPassing clouds.5 mph33%30.29 "Hg15 mi
4:00 pm57 °FSunny.8 mph36%30.30 "Hg15 mi
3:00 pm55 °FSunny.8 mph38%30.32 "Hg15 mi
2:00 pm55 °FSunny.9 mph38%30.33 "Hg15 mi
1:00 pm52 °FSunny.6 mph41%30.35 "Hg15 mi
12:00 pm50 °FSunny.12 mph43%30.37 "Hg15 mi
11:00 am46 °FSunny.9 mph46%30.38 "Hg15 mi
10:00 am45 °FSunny.7 mph49%30.40 "Hg15 mi
9:00 am41 °FSunny.8 mph57%30.41 "Hg15 mi
8:00 am37 °FSunny.9 mph70%30.42 "Hg15 mi
7:00 am34 °FSunny.7 mph81%30.42 "Hg15 mi
6:00 am28 °FSunny.5 mph93%30.42 "Hg15 mi
Weather by CustomWeather, © 2019

See weather overview